{"data":{"norad_id":49749,"epoch":"2026-09-19T05:04:39.519264Z","epoch_age_seconds":156503,"freshness":"FRESH","line1":"1 49749U 21115AB  26262.21156851 -.00000276  00000+0  28744-5 0  9995","line2":"2 49749  53.1624 345.8671 0001334  74.2121 285.9028 15.31699612264940","mean_motion":15.31699612,"eccentricity":0.0001334,"inclination_deg":53.1624,"raan_deg":345.8671,"arg_perigee_deg":74.2121,"mean_anomaly_deg":285.9028,"bstar":2.8744e-6,"rev_number":26494,"period_min":94.013211775887,"perigee_km":469.82751148825,"apogee_km":471.65479217916,"semimajor_km":6848.8781518337,"source":"CELESTRAK","updated_at":"2026-09-20T09:00:39.408163Z"}}